FW3814 Weather Reports


time (UTC)temp
C
wind
direction
speed
KPH
gust
KPH
rain 1hr
cm
rain 24hr
cm
rain mn
cm
humidity
%
barometer
mb
20260509105504 22 290 9.7 12.9 0.00 1.04 0.00 50 1015.0
20260509105004 22 264 8.0 12.9 0.00 1.04 0.00 50 1015.2
20260509104504 22 290 4.8 12.9 0.00 1.04 0.00 50 1015.3
20260509104004 21 305 6.4 11.3 0.00 1.04 0.00 50 1015.3
20260509103504 21 297 8.0 11.3 0.00 1.04 0.00 50 1015.3
20260509103004 21 298 6.4 11.3 0.00 1.04 0.00 51 1015.3
20260509102540 21 281 6.4 9.7 0.00 1.04 0.00 51 1015.5
20260509102004 21 263 8.0 11.3 0.00 1.04 0.00 51 1015.5
20260509101525 21 289 8.0 11.3 0.00 1.04 0.00 50 1015.5
20260509101004 21 359 8.0 8.0 0.00 1.04 0.00 50 1015.5
20260509100504 21 40 6.4 8.0 0.00 1.04 0.00 50 1015.6
20260509100005 21 113 6.4 9.7 0.00 1.04 0.00 50 1015.6
20260509095504 21 190 6.4 9.7 0.00 1.04 0.00 51 1015.7
20260509095004 21 195 8.0 9.7 0.00 1.04 0.00 52 1015.7
20260509094525 21 167 6.4 9.7 0.00 1.04 0.00 52 1015.7
20260509094025 21 341 4.8 6.4 0.00 1.04 0.00 53 1015.8
20260509093504 20 353 6.4 9.7 0.00 1.04 0.00 52 1015.8
20260509093025 20 1 6.4 9.7 0.00 1.04 0.00 52 1015.8
20260509092505 20 31 3.2 6.4 0.00 1.04 0.00 54 1015.7
20260509091525 20 357 3.2 6.4 0.00 1.04 0.00 55 1015.7
20260509091025 20 7 1.6 4.8 0.00 1.04 0.00 55 1015.8
20260509090504 20 335 1.6 6.4 0.00 1.04 0.00 55 1015.9
20260509090004 20 322 4.8 6.4 0.00 1.04 0.00 55 1015.7
20260509085504 20 316 3.2 6.4 0.00 1.04 0.00 56 1015.9
20260509085004 20 12 3.2 4.8 0.00 1.04 0.00 58 1015.9
20260509084504 20 39 4.8 6.4 0.00 1.04 0.00 58 1015.9
20260509084004 20 153 4.8 6.4 0.00 1.04 0.00 57 1015.9
20260509083504 20 119 3.2 6.4 0.00 1.04 0.00 58 1015.9
20260509083004 20 43 3.2 4.8 0.00 1.04 0.00 60 1015.9
20260509082504 19 24 3.2 4.8 0.00 1.04 0.00 61 1016.0
20260509082004 19 350 1.6 4.8 0.00 1.04 0.00 61 1015.7
20260509081504 19 7 1.6 6.4 0.00 1.04 0.00 61 1015.8
20260509081004 18 63 4.8 6.4 0.00 1.04 0.00 62 1015.9
20260509080504 18 69 4.8 6.4 0.00 1.04 0.00 62 1016.0
20260509080004 18 38 4.8 6.4 0.00 1.04 0.00 62 1016.0
20260509075504 18 40 4.8 6.4 0.00 1.04 0.00 62 1016.0
20260509075025 18 43 4.8 8.0 0.00 1.04 0.00 63 1016.0
20260509074504 18 29 6.4 8.0 0.00 1.04 0.00 63 1016.0
20260509074004 18 25 4.8 6.4 0.00 1.04 0.00 64 1016.2
20260509073504 18 21 3.2 6.4 0.00 1.04 0.00 65 1015.9
20260509073004 18 50 3.2 6.4 0.00 1.04 0.00 66 1016.1
20260509072525 17 59 4.8 6.4 0.00 1.04 0.00 66 1015.9
20260509072004 17 61 3.2 4.8 0.00 1.04 0.00 68 1016.0
20260509071525 17 52 3.2 8.0 0.00 1.04 0.00 69 1016.0
20260509071004 17 42 1.6 8.0 0.00 1.04 0.00 72 1016.0
20260509070504 17 315 0.0 1.6 0.00 1.04 0.00 74 1016.0
20260509070004 17 355 0.0 3.2 0.00 1.04 0.00 74 1016.0
20260509065525 16 14 1.6 3.2 0.00 1.04 0.00 74 1015.9
20260509065004 16 11 3.2 6.4 0.00 1.04 0.00 74 1015.9
20260509064524 16 6 4.8 6.4 0.00 1.04 0.00 74 1016.1
20260509064025 15 4 4.8 6.4 0.00 1.04 0.00 74 1016.0
20260509063504 15 359 6.4 6.4 0.00 1.04 0.00 75 1015.9
20260509063004 15 357 6.4 11.3 0.00 1.04 0.00 75 1016.0
20260509062504 15 11 8.0 11.3 0.00 1.04 0.00 76 1016.0
20260509062004 14 15 6.4 8.0 0.00 1.04 0.00 77 1015.8
20260509061525 14 4 6.4 8.0 0.00 1.04 0.00 77 1015.9
20260509061004 13 4 6.4 8.0 0.00 1.04 0.00 78 1015.9
20260509060504 13 2 4.8 8.0 0.00 1.04 0.00 78 1016.0
20260509060004 13 356 4.8 8.0 0.00 1.04 0.00 78 1015.9
20260509055525 13 354 6.4 8.0 0.00 1.04 0.00 78 1015.8
20260509055004 13 360 6.4 6.4 0.00 1.04 0.00 78 1016.0
20260509054525 13 358 4.8 6.4 0.00 1.04 0.00 79 1015.7
20260509054025 13 1 4.8 6.4 0.00 1.04 0.00 79 1015.8
20260509053504 13 4 4.8 6.4 0.00 1.04 0.00 80 1015.9
20260509053004 12 7 4.8 6.4 0.00 1.04 0.00 80 1016.0
20260509052519 12 14 6.4 8.0 0.00 1.04 0.00 81 1016.0
20260509052004 12 19 4.8 8.0 0.00 1.04 0.00 81 1016.0
20260509051504 12 9 4.8 6.4 0.00 1.04 0.00 84 1015.6
20260509051004 12 360 4.8 4.8 0.00 1.04 0.00 84 1015.8
20260509050504 11 351 3.2 4.8 0.00 1.04 0.00 84 1015.8
20260509050004 11 335 3.2 4.8 0.00 1.04 0.00 84 1015.8
20260509045525 11 326 4.8 6.4 0.00 1.04 0.00 85 1015.7
20260509045004 11 343 6.4 8.0 0.00 1.04 0.00 85 1015.5
20260509044504 11 7 8.0 9.7 0.00 1.04 0.00 86 1015.5
20260509044004 11 18 8.0 9.7 0.00 1.04 0.00 86 1015.2
20260509043504 11 17 8.0 12.9 0.00 1.04 0.00 87 1015.1
20260509043004 10 16 8.0 12.9 0.00 1.04 0.00 86 1015.2
20260509042504 10 18 8.0 8.0 0.00 1.04 0.00 86 1015.2
20260509042004 10 10 6.4 8.0 0.00 1.04 0.00 86 1015.2
20260509041525 10 3 6.4 6.4 0.00 1.04 0.00 85 1015.1
20260509041004 10 359 6.4 6.4 0.00 1.04 0.00 85 1015.0
20260509040504 10 356 6.4 6.4 0.00 1.04 0.00 84 1014.9
20260509040004 10 357 6.4 6.4 0.00 1.04 0.00 84 1014.9
20260509035504 10 4 4.8 6.4 0.00 1.04 0.00 84 1015.0
20260509035003 10 8 6.4 6.4 0.00 1.04 0.00 83 1015.0
20260509034525 10 11 6.4 8.0 0.00 1.04 0.00 83 1014.9
20260509034004 10 16 8.0 11.3 0.00 1.04 0.00 82 1014.8
20260509033504 10 19 9.7 11.3 0.00 1.04 0.00 82 1014.9
20260509033004 11 18 9.7 11.3 0.00 1.04 0.00 81 1015.0
20260509032504 11 16 9.7 12.9 0.00 1.04 0.00 81 1014.9
20260509032004 11 13 9.7 12.9 0.00 1.04 0.00 81 1015.0
20260509031504 11 8 8.0 11.3 0.00 1.04 0.00 81 1014.9
20260509031025 11 13 9.7 12.9 0.00 1.04 0.00 81 1015.0
20260509030504 11 11 8.0 12.9 0.00 1.04 0.00 81 1015.0
20260509030004 11 9 6.4 8.0 0.00 1.04 0.00 82 1015.2
20260509025504 11 20 6.4 8.0 0.00 1.04 0.00 82 1015.2
20260509025004 11 25 6.4 9.7 0.00 1.04 0.00 82 1015.1
20260509024504 11 28 8.0 12.9 0.00 1.04 0.00 83 1015.0
20260509024004 11 33 8.0 12.9 0.00 1.04 0.00 83 1015.0
20260509023504 11 25 6.4 8.0 0.00 1.04 0.00 83 1014.9
20260509023004 11 24 6.4 8.0 0.00 1.04 0.00 83 1014.7
20260509022504 11 23 6.4 8.0 0.00 1.04 0.00 83 1014.8
20260509022004 11 10 6.4 6.4 0.00 1.04 0.00 84 1014.8
20260509021504 11 14 6.4 11.3 0.00 1.04 0.00 84 1014.9
20260509021004 11 21 9.7 11.3 0.00 1.04 0.00 85 1014.9
20260509020525 11 18 11.3 12.9 0.00 1.04 0.00 86 1014.9
20260509020004 11 17 9.7 12.9 0.00 1.04 0.00 86 1015.2
20260509015504 11 14 9.7 11.3 0.00 1.04 0.00 86 1015.0
20260509015003 11 11 9.7 11.3 0.00 1.04 0.00 86 1015.3
20260509014524 11 14 8.0 9.7 0.00 1.04 0.00 86 1015.1
20260509014004 11 9 6.4 9.7 0.00 1.04 0.00 86 1015.2
20260509013504 11 5 6.4 8.0 0.00 1.04 0.00 85 1015.3
20260509013004 11 7 6.4 8.0 0.00 1.04 0.00 85 1015.3
20260509012504 11 9 4.8 6.4 0.00 1.04 0.00 85 1015.5
20260509012004 11 12 4.8 6.4 0.00 1.04 0.00 84 1015.2
20260509011524 11 13 4.8 6.4 0.00 1.04 0.00 84 1015.5
20260509011025 11 4 6.4 6.4 0.00 1.04 0.00 83 1015.5
20260509010504 11 3 6.4 6.4 0.00 1.04 0.00 83 1015.2
20260509010004 11 10 8.0 12.9 0.00 1.04 0.00 83 1015.5
20260509005524 11 15 9.7 12.9 0.00 1.04 0.00 82 1015.3
20260509005004 11 14 9.7 11.3 0.00 1.04 0.00 82 1015.2
20260509004503 12 11 8.0 9.7 0.00 1.04 0.00 82 1015.3
20260509004003 12 8 8.0 9.7 0.00 1.04 0.00 82 1015.3
20260509003503 12 9 8.0 8.0 0.00 1.04 0.00 79 1015.2
20260509003025 12 13 6.4 8.0 0.00 1.04 0.00 80 1015.5
20260509002504 12 12 8.0 9.7 0.00 1.04 0.00 80 1015.3
20260509002025 12 14 8.0 9.7 0.00 1.04 0.00 79 1015.3
20260509001504 12 10 4.8 6.4 0.00 1.04 0.00 79 1015.2
20260509001004 12 338 3.2 4.8 0.00 1.04 0.00 79 1015.2
20260509000504 12 352 4.8 6.4 0.00 1.04 0.00 79 1015.1
20260509000004 12 22 6.4 6.4 0.00 1.04 0.00 79 1015.3
20260508235524 12 18 6.4 8.0 0.00 1.04 0.00 79 1015.2
20260508235025 12 12 6.4 8.0 0.00 1.04 0.00 79 1015.2
20260508234503 12 11 8.0 8.0 0.00 1.04 0.00 80 1015.0
20260508234004 12 17 8.0 9.7 0.00 1.04 0.00 80 1015.1
20260508233504 12 20 8.0 9.7 0.00 1.04 0.00 80 1015.2
20260508233003 12 14 8.0 9.7 0.00 1.04 0.00 79 1015.1
20260508232504 12 11 8.0 8.0 0.00 1.04 0.00 79 1015.0
20260508232003 12 12 8.0 12.9 0.00 1.04 0.00 79 1015.2
20260508231003 12 15 9.7 12.9 0.00 1.04 0.00 80 1014.9
20260508230503 12 14 8.0 9.7 0.00 1.04 0.00 80 1015.0
20260508230003 12 12 8.0 9.7 0.00 1.04 0.00 80 1014.9
20260508225503 12 12 8.0 9.7 0.00 1.04 0.00 80 1015.1
20260508225003 12 14 6.4 9.7 0.00 1.04 0.00 80 1015.0
20260508224503 12 7 3.2 8.0 0.00 1.04 0.00 80 1015.2
20260508224003 12 6 1.6 3.2 0.00 1.04 0.00 80 1015.3
20260508223503 12 11 1.6 3.2 0.00 1.04 0.00 79 1015.2
20260508223003 12 17 0.0 3.2 0.00 1.04 0.00 79 1015.2
20260508222503 12 18 0.0 3.2 0.00 1.04 0.00 79 1015.2
20260508222003 12 21 1.6 4.8 0.00 1.04 0.00 80 1015.2
20260508221503 13 19 3.2 4.8 0.00 1.04 0.00 80 1015.2
20260508221003 13 19 3.2 4.8 0.00 1.04 0.00 80 1015.3
20260508220503 13 22 3.2 4.8 0.00 1.04 0.00 81 1015.1
20260508220003 13 21 1.6 4.8 0.00 1.04 0.00 81 1015.2
20260508215503 13 19 1.6 3.2 0.00 1.04 1.04 80 1015.0
20260508215003 12 19 0.0 3.2 0.00 1.04 1.04 80 1015.1
20260508214503 12 360 0.0 1.6 0.00 1.04 1.04 80 1015.1
20260508214024 12 22 0.0 1.6 0.00 1.04 1.04 80 1015.0
20260508213503 12 19 0.0 1.6 0.00 1.04 1.04 80 1015.1
20260508213003 12 17 0.0 1.6 0.00 1.04 1.04 80 1015.1
20260508212503 13 351 1.6 3.2 0.00 1.04 1.04 80 1015.2
20260508212003 13 3 3.2 4.8 0.00 1.04 1.04 79 1015.0
20260508211503 13 7 4.8 6.4 0.00 1.04 1.04 79 1015.0
20260508211003 13 359 4.8 6.4 0.00 1.04 1.04 79 1015.1
20260508210524 13 1 4.8 6.4 0.00 1.04 1.04 79 1015.0
20260508210024 13 8 3.2 6.4 0.00 1.04 1.04 80 1015.0
20260508205503 13 0 0.0 0.0 0.00 1.04 1.04 79 1015.1
20260508205024 13 0 0.0 0.0 0.00 1.04 1.04 78 1014.9
20260508204503 13 0 0.0 0.0 0.00 1.04 1.04 78 1014.9
20260508204003 13 0 0.0 0.0 0.00 1.04 1.04 78 1014.9
20260508203503 13 0 0.0 0.0 0.00 1.04 1.04 78 1014.9
20260508203003 13 0 0.0 0.0 0.00 1.04 1.04 79 1014.9
20260508202503 13 0 0.0 0.0 0.00 1.04 1.04 78 1014.9
20260508202003 13 0 0.0 0.0 0.00 1.04 1.04 78 1015.0
20260508201503 13 0 0.0 0.0 0.00 1.04 1.04 78 1014.9
20260508201003 13 0 0.0 0.0 0.00 1.04 1.04 78 1014.9
20260508200503 13 0 0.0 0.0 0.00 1.04 1.04 78 1014.9
20260508200003 13 0 0.0 0.0 0.00 1.04 1.04 78 1014.8
20260508195503 13 0 0.0 0.0 0.00 1.04 1.04 77 1014.8
20260508195003 13 0 0.0 0.0 0.00 1.04 1.04 77 1014.7
20260508194524 13 0 0.0 0.0 0.00 1.04 1.04 77 1014.8
20260508194003 13 0 0.0 0.0 0.00 1.04 1.04 76 1014.6
20260508193503 13 0 0.0 0.0 0.00 1.04 1.04 76 1014.6
20260508193003 14 0 0.0 0.0 0.00 1.04 1.04 76 1014.4
20260508192524 14 0 0.0 0.0 0.00 1.04 1.04 77 1014.5
20260508192024 14 0 0.0 0.0 0.00 1.04 1.04 77 1014.3
20260508191503 14 0 0.0 0.0 0.00 1.04 1.04 76 1014.2
20260508191024 14 0 0.0 0.0 0.00 1.04 1.04 77 1014.2
20260508190503 15 0 0.0 0.0 0.00 1.04 1.04 78 1014.2
20260508190024 15 0 0.0 0.0 0.00 1.04 1.04 78 1014.0
20260508185503 15 0 0.0 0.0 0.00 1.04 1.04 78 1013.9
20260508185003 15 0 0.0 0.0 0.00 1.04 1.04 78 1013.9
20260508184504 15 0 0.0 0.0 0.00 1.04 1.04 79 1013.9
20260508184024 15 0 0.0 0.0 0.00 1.04 1.04 79 1013.9
20260508183503 15 0 0.0 0.0 0.00 1.04 1.04 78 1013.7
20260508183024 15 0 0.0 0.0 0.00 1.04 1.04 77 1013.7
20260508182503 16 0 0.0 0.0 0.00 1.04 1.04 76 1013.7
20260508182003 16 0 0.0 0.0 0.00 1.04 1.04 76 1013.7
20260508181503 16 0 0.0 0.0 0.00 1.04 1.04 76 1013.6
20260508181003 16 0 0.0 0.0 0.00 1.04 1.04 76 1013.8
20260508180503 16 0 0.0 0.0 0.00 1.04 1.04 76 1013.7
20260508180003 16 360 0.0 1.6 0.00 1.04 1.04 76 1013.9
20260508175503 16 360 0.0 1.6 0.00 1.04 1.04 77 1013.8
20260508175003 16 360 0.0 1.6 0.00 1.04 1.04 77 1013.6
20260508174503 16 0 0.0 0.0 0.00 1.04 1.04 77 1013.7
20260508174003 16 0 0.0 0.0 0.00 1.04 1.04 77 1013.8
20260508173503 16 0 0.0 0.0 0.00 1.04 1.04 76 1013.6
20260508173003 16 0 0.0 0.0 0.00 1.04 1.04 77 1013.7
20260508172503 16 0 0.0 0.0 0.00 1.04 1.04 77 1013.8
20260508172003 16 0 0.0 0.0 0.00 1.04 1.04 77 1013.7
20260508171503 16 0 0.0 0.0 0.00 1.04 1.04 77 1013.6
20260508171003 16 0 0.0 0.0 0.00 1.04 1.04 78 1013.6
20260508170503 16 0 0.0 0.0 0.00 1.04 1.04 78 1013.7
20260508170003 16 0 0.0 0.0 0.00 1.04 1.04 78 1013.6
20260508165524 16 0 0.0 0.0 0.00 1.04 1.04 78 1013.7
20260508165024 16 0 0.0 0.0 0.00 1.04 1.04 77 1013.5
20260508164524 16 0 0.0 0.0 0.00 1.04 1.04 77 1013.6
20260508164024 16 0 0.0 0.0 0.00 1.04 1.04 77 1013.8
20260508163503 16 0 0.0 0.0 0.00 1.04 1.04 77 1013.6
20260508163003 16 0 0.0 0.0 0.00 1.04 1.04 77 1013.6
20260508162503 16 0 0.0 0.0 0.00 1.04 1.04 77 1013.5
20260508162024 16 0 0.0 0.0 0.00 1.04 1.04 78 1013.4
20260508161503 16 67 0.0 1.6 0.00 1.04 1.04 79 1013.6
20260508161024 15 67 0.0 1.6 0.03 1.04 1.04 80 1013.6
20260508160503 15 0 0.0 0.0 0.03 1.04 1.04 80 1013.6
20260508160024 15 9 0.0 3.2 0.05 1.04 1.04 80 1013.6
20260508155524 15 11 1.6 3.2 0.10 1.04 1.04 80 1013.5
20260508155024 15 13 0.0 3.2 0.13 1.04 1.04 80 1013.5
20260508154524 15 341 1.6 3.2 0.15 1.04 1.04 79 1013.8
20260508154003 14 359 3.2 6.4 0.18 1.04 1.04 79 1013.6
20260508153503 14 1 4.8 6.4 0.18 1.04 1.04 78 1013.8
20260508153003 14 7 4.8 6.4 0.20 1.04 1.04 78 1013.9
20260508152503 14 25 6.4 8.0 0.23 1.04 1.04 78 1013.9
20260508152024 13 33 6.4 8.0 0.23 1.04 1.04 77 1014.1
20260508151503 13 45 6.4 9.7 0.28 1.04 1.04 77 1014.1
20260508151003 13 32 4.8 9.7 0.30 1.02 1.02 76 1014.2
20260508150503 13 19 8.0 12.9 0.33 1.02 1.02 76 1014.0
20260508150003 13 10 8.0 12.9 0.46 0.99 0.99 76 1013.9
20260508145503 13 355 6.4 9.7 0.79 0.97 0.97 76 1014.0
20260508145024 13 355 4.8 6.4 0.81 0.94 0.94 76 1014.0
20260508144503 13 359 3.2 6.4 0.81 0.89 0.89 76 1014.0
20260508144003 13 330 1.6 6.4 0.79 0.86 0.86 76 1013.9
20260508143503 13 331 3.2 6.4 0.81 0.86 0.86 75 1014.0
20260508143003 13 344 1.6 6.4 0.79 0.84 0.84 75 1014.0
20260508142524 13 341 1.6 6.4 0.81 0.81 0.81 74 1014.1
20260508142003 13 340 3.2 6.4 0.81 0.81 0.81 74 1014.2
20260508141503 13 330 6.4 8.0 0.79 0.79 0.79 73 1014.1
20260508141003 14 320 6.4 11.3 0.71 0.71 0.71 72 1014.4
20260508140503 14 321 11.3 17.7 0.69 0.69 0.69 71 1014.3
20260508140003 15 323 8.0 17.7 0.53 0.53 0.53 70 1014.4
20260508135503 16 328 3.2 8.0 0.18 0.18 0.18 70 1014.3
20260508135003 16 344 4.8 14.5 0.13 0.13 0.13 69 1014.2
20260508134503 16 346 3.2 14.5 0.10 0.10 0.10 68 1013.9
20260508134003 17 325 1.6 4.8 0.10 0.10 0.10 62 1013.9
20260508133503 17 317 1.6 4.8 0.05 0.05 0.05 61 1014.0
20260508133003 18 329 1.6 3.2 0.05 0.05 0.05 60 1013.9
20260508132503 18 298 3.2 11.3 0.00 0.00 0.00 59 1014.0
20260508132003 18 274 6.4 11.3 0.00 0.00 0.00 57 1014.2
20260508131503 18 263 3.2 11.3 0.00 0.00 0.00 56 1014.1
20260508131003 19 117 1.6 8.0 0.00 0.00 0.00 56 1014.0
20260508130503 19 233 6.4 11.3 0.00 0.00 0.00 55 1014.1
20260508130003 19 252 9.7 12.9 0.00 0.00 0.00 55 1014.2
20260508125524 19 253 8.0 12.9 0.00 0.00 0.00 54 1014.2
20260508125003 19 225 3.2 12.9 0.00 0.00 0.00 54 1014.2
20260508124524 19 193 4.8 8.0 0.00 0.00 0.00 54 1014.0
20260508124024 19 160 4.8 8.0 0.00 0.00 0.00 54 1014.0
20260508123503 20 8 4.8 8.0 0.00 0.00 0.00 54 1014.2
20260508123003 20 244 6.4 12.9 0.00 0.00 0.00 55 1014.1
20260508122503 20 211 8.0 12.9 0.00 0.00 0.00 55 1014.0
20260508122003 20 192 4.8 11.3 0.00 0.00 0.00 56 1014.0
20260508121503 19 217 4.8 8.0 0.00 0.00 0.00 57 1014.2
20260508121003 19 229 6.4 9.7 0.00 0.00 0.00 56 1014.1
20260508120503 19 184 8.0 11.3 0.00 0.00 0.00 56 1014.1
20260508120003 19 186 9.7 11.3 0.00 0.00 0.00 56 1014.2
20260508115508 19 226 11.3 17.7 0.00 0.00 0.00 56 1014.2
20260508115003 19 246 11.3 17.7 0.00 0.00 0.00 56 1014.4
20260508114503 19 195 9.7 17.7 0.00 0.00 0.00 56 1014.2
20260508114024 18 138 8.0 12.9 0.00 0.00 0.00 56 1014.4
20260508113503 18 130 9.7 12.9 0.00 0.00 0.00 57 1014.4
20260508113003 18 170 8.0 12.9 0.00 0.00 0.00 56 1014.3
20260508112503 19 219 9.7 16.1 0.00 0.00 0.00 57 1014.5
20260508112003 19 205 11.3 16.1 0.00 0.00 0.00 57 1014.6
20260508111503 19 218 8.0 12.9 0.00 0.00 0.00 58 1014.4
20260508111003 19 286 4.8 9.7 0.00 0.00 0.00 58 1014.6
20260508110524 19 270 4.8 8.0 0.00 0.00 0.00 58 1014.6
20260508110003 19 181 6.4 8.0 0.00 0.00 0.00 58 1014.5